Weather observations for the past three days for
La Paz International Airport
Metric (Imperial)
Date Time (mst) Wind (kph) Vis. (km) Weather Sky Cond. Temperature (ºC) Relative Humidity Wind Chill (°C) Heat Index (°C) Pressure Precipitation (cm)
Air Dwpt 6 hour altimeter (cm) sea level (mb) 1 hr 3 hr 6 hr
Max. Min.
06 09:40 N 15 16.09 A Few Clouds FEW120 27 19 62% 28 76.2 0.0
06 08:40 NW 13 16.09 Partly Cloudy SCT120 26 16 54% 27 76.2 0.0
06 07:40 Calm 16.09 A Few Clouds FEW120 25 13 47% 26 76.17 1015.1
06 06:40 S 7 16.09 Partly Cloudy SCT120 20 13 64% 76.15 0.0
06 05:46 S 11 16.09 Partly Cloudy SCT120 19 13 68% 76.1 0.0
05 22:40 S 7 12.87 A Few Clouds FEW200 23 19 78% 76.07 1013.8
05 21:40 Calm 12.87 A Few Clouds FEW200 24 19 74% 25 76.05 0.0
05 20:46 NW 7 12.87 Partly Cloudy SCT200 25 20 74% 26 76.02 0.0
05 19:40 N 11 12.87 Mostly Cloudy BKN200 26 20 70% 27 76 1012.7
05 18:40 N 15 16.09 Mostly Cloudy BKN200 28 18 55% 29 75.97 0.0
05 17:40 N 19 16.09 Mostly Cloudy BKN200 30 17 46% 30 75.92 0.0
05 16:40 N 19 16.09 Mostly Cloudy BKN200 32 16 38% 32 75.87 1011.2
05 15:40 N 15 16.09 Mostly Cloudy BKN200 33 5 17% 31 75.9 0.0
05 14:40 N 20 16.09 Mostly Cloudy BKN200 31 11 29% 30 75.97 0.0
05 13:40 N 13 16.09 Mostly Cloudy BKN200 31 11 29% 30 76.02 1013.2
05 12:40 N 17 16.09 Mostly Cloudy BKN200 31 10 27% 29 76.1 0.0
05 11:40 Calm 16.09 Mostly Cloudy BKN200 30 8 25% 28 76.15 0.0
05 10:40 SW 11 16.09 Mostly Cloudy BKN200 27 12 39% 27 76.17 1015.3
05 09:40 S 20 16.09 Mostly Cloudy BKN200 24 12 47% 25 76.17 0.0
05 08:40 SW 20 16.09 Mostly Cloudy BKN200 23 12 50% 76.15 0.0
05 07:40 SE 15 16.09 Mostly Cloudy BKN200 19 13 68% 76.15 1014.5
05 06:40 SE 9 12.87 Mostly Cloudy BKN200 17 13 77% 76.12 0.0
05 06:03 Calm 12.87 A Few Clouds FEW200 15 12 82% 76.05 0.0
04 22:40 SE 19 12.87 A Few Clouds FEW200 19 14 73% 76.12 1014.7
04 21:40 S 22 12.87 Partly Cloudy SCT200 20 14 69% 76.12 0.0
04 20:40 S 26 12.87 Partly Cloudy SCT200 21 14 64% 76.1 0.0
04 19:40 S 20 12.87 Mostly Cloudy BKN200 23 14 57% 76.05 1013.3
04 18:40 S 17 16.09 Mostly Cloudy BKN200 26 14 48% 26 76 0.0
04 17:42 SW 17 16.09 Mostly Cloudy BKN200 30 12 33% 29 75.97 0.0
04 16:40 N 9 16.09 Mostly Cloudy BKN200 31 15 38% 31 75.97 1012.3
04 15:40 N 15 16.09 Mostly Cloudy BKN200 30 14 38% 29 76 0.0
04 14:40 NW 22 16.09 Mostly Cloudy BKN200 32 16 38% 32 76 0.0
04 13:44 Calm 16.09 Mostly Cloudy BKN200 32 12 29% 31 76.02 1013.2
04 12:40 S 19 16.09 Partly Cloudy SCT200 31 12 31% 30 76.1 0.0
04 11:40 S 26 16.09 Mostly Cloudy BKN200 29 12 35% 28 76.15 0.0
04 10:40 S 24 16.09 Mostly Cloudy BKN200 27 12 39% 27 76.2 1015.4
04 09:40 S 15 16.09 Mostly Cloudy BKN200 24 13 50% 25 76.23 0.0
04 08:44 S 20 16.09 Mostly Cloudy BKN200 20 13 64% 76.25 0.0
04 07:41 S 19 16.09 Mostly Cloudy FEW100 BKN200 18 13 73% 76.23 1015.9
04 06:46 S 17 16.09 Mostly Cloudy FEW100 BKN200 16 13 83% 76.2 0.0
04 05:40 S 17 16.09 Partly Cloudy SCT200 15 13 88% 76.17 0.0
03 22:40 S 15 16.09 Clear SKC 19 14 73% 76.25 1016.1
03 21:40 S 17 16.09 Clear SKC 20 14 69% 76.25 0.0
03 20:40 S 19 16.09 Clear SKC 21 14 64% 76.23 0.0
03 19:40 S 20 16.09 Partly Cloudy SCT200 23 14 57% 76.15 1014.7
03 18:40 SW 19 16.09 Mostly Cloudy BKN200 26 12 42% 26 76.07 0.0
03 17:40 S 13 16.09 Partly Cloudy SCT200 29 11 33% 28 76.02 0.0
03 16:40 SW 13 16.09 Mostly Cloudy BKN200 30 10 29% 29 75.97 1012.5
03 15:41 SW 28 16.09 Mostly Cloudy BKN200 32 11 27% 31 75.97 0.0
03 14:40 SW 24 16.09 Mostly Cloudy BKN200 34 10 23% 32 75.97 0.0
03 13:40 SW 11 16.09 Mostly Cloudy BKN200 33 11 26% 31 75.97 1012.4
03 12:41 S 11 16.09 Mostly Cloudy BKN200 32 11 27% 31 76.02 0.0
03 11:42 W 6 16.09 A Few Clouds FEW200 32 9 24% 30 76.1 0.0
03 10:40 S 6 16.09 Partly Cloudy SCT200 30 8 25% 28 76.12 1014.7
Date Time (mst) Wind (kph) Vis. (km) Weather Sky Cond. Air Dwpt Max. Min. Relative Humidity Wind Chill (°C) Heat Index (°C) altimeter (cm) sea level (mb) 1 hr 3 hr 6 hr
6 hour
Temperature (ºC) Pressure Precipitation (cm)